Zurück zum Katalog

AYAME 1

ECS 1

AktivKommunikationHEO
NORAD 11261·PAYLOAD·🇯🇵 Japan

Gestartet Feb 6, 1979 von Tanegashima Space Center

Loading…

Nächste Überflüge (nächste 24 Stunden)

TLE

AktuellSource: Space-Track

Epoche: Sep 14, 2026, 06:19 UTC

1 11261U 79009A   26257.26355091 -.00000100  00000-0  00000-0 0  9991
2 11261   9.4721 298.9946 3677525 151.6505 256.9933  1.68584184177660

Verfolge AYAME 1 in Echtzeit mit AllMySat

Download on the App Store